Weather in Faliraki

Greece     36°20′25″N   28°12′01″E
temp.,
°C
wind,
m/s
gust,
m/s
humid.,
%
clouds,
%
prec.,
mm/h
press.,
hPa
HPBL,
m
5 march, fri
fri523:00+14wnw45590 0.0 1020242
02:00+13wnw34600 0.0 1020196
05:00+13wnw34620 0.0 1020210
08:00+14w35620 0.0 1021315
11:00+16ssw22530 0.0 1022374
14:00+17sse21540 0.0 1021601
17:00+17sse11570 0.0 1021627
20:00+15ne22610 0.0 1022342
6 march, sat
sat623:00+15ssw246535 0.0 1023383
02:00+15s446868 0.0 1023796
05:00+15s456632 0.0 1023825
08:00+16ssw456766 0.0 10231051
11:00+16s6668100 0.0 10231071
14:00+16s5670100 0.1 1022782
17:00+17s457067 0.0 1021690
20:00+16nne116533 0.0 1022406
7 march, sun
sun723:00+15nw33680 0.0 1022171
02:00+14nw23610 0.0 1021165
05:00+14nw34720 0.0 1020224
08:00+15nw56700 0.0 1021578
11:00+17nw45580 0.0 1020962
14:00+18nw78570 0.0 10181049
17:00+17wnw89620 0.0 1017688
20:00+15nw912650 0.0 1017571
8 march, mon
mon823:00+15nw912640 0.0 1017543
02:00+14nw811610 0.0 1016445
05:00+14nw810610 0.0 1016515
08:00+14nw811530 0.0 1016598
11:00+16nw78470 0.0 1016849
14:00+16nw89460 0.0 1015820
17:00+15wnw79500 0.0 1014540
20:00+14wnw68510 0.0 1015338
9 march, tue
tue923:00+14wnw465337 0.0 1015281
02:00+14wnw345451 0.0 1015233
05:00+13wnw225537 0.0 1014162
08:00+14nnw005135 0.0 1015160
11:00+15ese3350100 0.0 1015449
14:00+16ese4457100 0.1 1013516
17:00+16ese786295 0.1 1013603
20:00+16ese686765 0.1 1013459